| time (UTC) | temp F | wind direction | speed MPH | gust MPH | rain 1hr in | rain 24hr in | rain mn in | humidity % | barometer mb |
| 20260507163047 | 68 | 104 | 0.0 | 3.0 | 0.00 | 0.05 | 0.00 | 58 | 1019.0 |
| 20260507161548 | 68 | 120 | 0.0 | 2.0 | 0.00 | 0.05 | 0.00 | 61 | 1019.2 |
| 20260507160044 | 67 | 116 | 0.0 | 4.0 | 0.00 | 0.05 | 0.00 | 61 | 1019.0 |
| 20260507154542 | 67 | 122 | 0.0 | 1.0 | 0.00 | 0.18 | 0.00 | 63 | 1019.1 |
| 20260507153043 | 66 | 103 | 0.0 | 4.0 | 0.00 | 0.18 | 0.00 | 68 | 1019.3 |
| 20260507151536 | 64 | 124 | 0.0 | 4.0 | 0.00 | 0.18 | 0.00 | 68 | 1019.4 |
| 20260507150035 | 65 | 128 | 0.0 | 2.0 | 0.00 | 0.18 | 0.00 | 68 | 1019.5 |
| 20260507144530 | 63 | 107 | 0.0 | 3.0 | 0.00 | 0.18 | 0.00 | 72 | 1019.6 |
| 20260507143028 | 63 | 146 | 0.0 | 2.0 | 0.00 | 0.18 | 0.00 | 75 | 1019.6 |
| 20260507141524 | 60 | 89 | 0.0 | 2.0 | 0.00 | 0.18 | 0.00 | 76 | 1019.8 |
| 20260507140021 | 59 | 86 | 0.0 | 0.0 | 0.00 | 0.18 | 0.00 | 79 | 1019.8 |
| 20260507134520 | 58 | 88 | 0.0 | 0.0 | 0.00 | 0.18 | 0.00 | 81 | 1020.0 |
| 20260507133019 | 58 | 87 | 0.0 | 0.0 | 0.00 | 0.18 | 0.00 | 80 | 1020.1 |
| 20260507131520 | 58 | 88 | 0.0 | 0.0 | 0.00 | 0.18 | 0.00 | 81 | 1020.1 |
| 20260507130021 | 57 | 87 | 0.0 | 0.0 | 0.00 | 0.18 | 0.00 | 83 | 1020.1 |
| 20260507124519 | 55 | 88 | 0.0 | 0.0 | 0.00 | 0.18 | 0.00 | 78 | 1019.8 |
| 20260507123010 | 52 | 88 | 0.0 | 0.0 | 0.00 | 0.18 | 0.00 | 78 | 1019.7 |
| 20260507121507 | 0 | 0.0 | 0.0 | 0.00 | 0.18 | 0.00 | 1019.7 | ||
| 20260507120004 | 0 | 0.0 | 0.0 | 0.00 | 0.18 | 0.00 | 1019.5 | ||
| 20260507114601 | 0 | 0.0 | 0.0 | 0.00 | 0.18 | 0.00 | 1019.2 | ||
| 20260507113059 | 0 | 0.0 | 0.0 | 0.00 | 0.18 | 0.00 | 1018.9 | ||
| 20260507111549 | 0 | 0.0 | 0.0 | 0.00 | 0.18 | 0.00 | 1019.2 | ||
| 20260507110045 | 0 | 0.0 | 0.0 | 0.00 | 0.18 | 0.00 | 1019.2 | ||
| 20260507104540 | 0 | 0.0 | 0.0 | 0.00 | 0.18 | 0.00 | 1018.9 | ||
| 20260507103036 | 0 | 0.0 | 0.0 | 0.00 | 0.18 | 0.00 | 1018.5 | ||
| 20260507101532 | 0 | 0.0 | 0.0 | 0.00 | 0.18 | 0.00 | 1018.4 | ||
| 20260507100033 | 0 | 0.0 | 0.0 | 0.00 | 0.18 | 0.00 | 1018.1 | ||
| 20260507094526 | 0 | 0.0 | 0.0 | 0.00 | 0.18 | 0.00 | 1017.9 | ||
| 20260507093019 | 53 | 84 | 0.0 | 0.0 | 0.00 | 0.18 | 0.00 | 82 | 1017.5 |
| 20260507091524 | 54 | 84 | 0.0 | 0.0 | 0.00 | 0.18 | 0.00 | 83 | 1017.5 |
| 20260507090018 | 54 | 95 | 0.0 | 2.0 | 0.00 | 0.18 | 0.00 | 83 | 1017.1 |
| 20260507084517 | 54 | 101 | 0.0 | 1.0 | 0.00 | 0.18 | 0.00 | 83 | 1017.3 |
| 20260507083014 | 54 | 84 | 0.0 | 2.0 | 0.00 | 0.18 | 0.00 | 83 | 1017.5 |
| 20260507081513 | 55 | 116 | 0.0 | 3.0 | 0.00 | 0.18 | 0.00 | 83 | 1017.5 |
| 20260507080011 | 55 | 114 | 0.0 | 2.0 | 0.00 | 0.18 | 0.00 | 83 | 1017.2 |
| 20260507074511 | 55 | 120 | 0.0 | 1.0 | 0.00 | 0.18 | 0.00 | 83 | 1017.2 |
| 20260507073008 | 54 | 108 | 0.0 | 1.0 | 0.00 | 0.18 | 0.00 | 83 | 1017.0 |
| 20260507071516 | 54 | 101 | 0.0 | 0.0 | 0.00 | 0.18 | 0.00 | 83 | 1016.8 |
| 20260507070010 | 54 | 101 | 0.0 | 0.0 | 0.00 | 0.18 | 0.00 | 83 | 1016.7 |
| 20260507064504 | 54 | 102 | 0.0 | 0.0 | 0.00 | 0.18 | 0.00 | 82 | 1016.8 |
| 20260507063006 | 54 | 101 | 0.0 | 0.0 | 0.00 | 0.18 | 0.00 | 82 | 1016.6 |
| 20260507061602 | 55 | 101 | 0.0 | 0.0 | 0.00 | 0.18 | 0.00 | 82 | 1016.7 |
| 20260507060059 | 55 | 101 | 0.0 | 0.0 | 0.00 | 0.18 | 0.00 | 81 | 1016.5 |
| 20260507054559 | 56 | 103 | 0.0 | 0.0 | 0.00 | 0.18 | 0.00 | 79 | 1016.5 |
| 20260507053120 | 56 | 103 | 0.0 | 3.0 | 0.00 | 0.18 | 0.00 | 78 | 1016.4 |
| 20260507051600 | 57 | 85 | 0.0 | 3.0 | 0.00 | 0.18 | 0.00 | 78 | 1016.3 |
| 20260507050048 | 57 | 130 | 0.0 | 5.0 | 0.00 | 0.18 | 0.00 | 77 | 1016.4 |
| 20260507044554 | 58 | 136 | 0.0 | 3.0 | 0.00 | 0.18 | 0.18 | 77 | 1016.5 |
| 20260507043050 | 58 | 91 | 1.0 | 4.0 | 0.00 | 0.18 | 0.18 | 76 | 1016.4 |
| 20260507041547 | 59 | 103 | 0.0 | 4.0 | 0.00 | 0.18 | 0.18 | 76 | 1016.6 |
| 20260507040046 | 59 | 120 | 0.0 | 7.0 | 0.00 | 0.18 | 0.18 | 76 | 1016.8 |
| 20260507034544 | 59 | 99 | 0.0 | 2.0 | 0.00 | 0.18 | 0.18 | 76 | 1016.8 |
| 20260507033050 | 59 | 97 | 0.0 | 4.0 | 0.00 | 0.18 | 0.18 | 76 | 1016.8 |
| 20260507031542 | 59 | 84 | 0.0 | 3.0 | 0.00 | 0.18 | 0.18 | 76 | 1016.5 |
| 20260507030042 | 60 | 110 | 0.0 | 6.0 | 0.00 | 0.18 | 0.18 | 76 | 1016.6 |
| 20260507024541 | 60 | 108 | 0.0 | 6.0 | 0.00 | 0.18 | 0.18 | 76 | 1016.0 |
| 20260507023038 | 60 | 72 | 0.0 | 3.0 | 0.00 | 0.18 | 0.18 | 76 | 1015.8 |
| 20260507021535 | 60 | 106 | 0.0 | 3.0 | 0.00 | 0.18 | 0.18 | 77 | 1015.4 |
| 20260507020040 | 60 | 100 | 0.0 | 4.0 | 0.00 | 0.18 | 0.18 | 77 | 1015.1 |
| 20260507014542 | 60 | 99 | 0.0 | 2.0 | 0.00 | 0.18 | 0.18 | 78 | 1014.8 |
| 20260507013034 | 61 | 130 | 0.0 | 1.0 | 0.00 | 0.18 | 0.18 | 77 | 1014.5 |
| 20260507011539 | 61 | 127 | 0.0 | 2.0 | 0.00 | 0.18 | 0.18 | 77 | 1014.2 |
| 20260507010035 | 61 | 152 | 0.0 | 2.0 | 0.00 | 0.18 | 0.18 | 77 | 1013.9 |
| 20260507004537 | 61 | 122 | 0.0 | 4.0 | 0.00 | 0.18 | 0.18 | 77 | 1013.8 |
| 20260507003031 | 62 | 103 | 0.0 | 5.0 | 0.00 | 0.18 | 0.18 | 78 | 1013.6 |
| 20260507001530 | 62 | 285 | 0.0 | 3.0 | 0.00 | 0.18 | 0.18 | 77 | 1013.5 |
| 20260507000029 | 62 | 98 | 0.0 | 1.0 | 0.00 | 0.18 | 0.18 | 78 | 1013.3 |
| 20260506234529 | 62 | 98 | 0.0 | 2.0 | 0.00 | 0.18 | 0.18 | 78 | 1013.2 |
| 20260506233029 | 63 | 116 | 0.0 | 1.0 | 0.00 | 0.18 | 0.18 | 79 | 1013.0 |
| 20260506231528 | 63 | 97 | 1.0 | 3.0 | 0.00 | 0.18 | 0.18 | 78 | 1012.8 |
| 20260506230025 | 63 | 302 | 0.0 | 1.0 | 0.00 | 0.18 | 0.18 | 81 | 1012.7 |
| 20260506224525 | 62 | 110 | 0.0 | 4.0 | 0.03 | 0.18 | 0.18 | 80 | 1012.9 |
| 20260506223024 | 62 | 121 | 0.0 | 1.0 | 0.05 | 0.18 | 0.18 | 82 | 1012.6 |
| 20260506221523 | 61 | 86 | 0.0 | 3.0 | 0.05 | 0.18 | 0.18 | 82 | 1012.6 |
| 20260506220033 | 60 | 110 | 0.0 | 2.0 | 0.05 | 0.18 | 0.18 | 81 | 1012.6 |
| 20260506214524 | 62 | 103 | 0.0 | 1.0 | 0.02 | 0.15 | 0.15 | 77 | 1013.0 |
| 20260506213028 | 63 | 92 | 0.0 | 1.0 | 0.00 | 0.13 | 0.13 | 74 | 1012.6 |
| 20260506211520 | 62 | 111 | 0.0 | 3.0 | 0.00 | 0.13 | 0.13 | 76 | 1012.9 |
| 20260506210023 | 62 | 110 | 0.0 | 3.0 | 0.00 | 0.13 | 0.13 | 73 | 1013.0 |
| 20260506204520 | 63 | 297 | 0.0 | 4.0 | 0.00 | 0.13 | 0.13 | 73 | 1012.9 |
| 20260506203021 | 63 | 293 | 0.0 | 1.0 | 0.00 | 0.13 | 0.13 | 74 | 1013.0 |
| 20260506201517 | 62 | 77 | 0.0 | 1.0 | 0.00 | 0.13 | 0.13 | 77 | 1013.4 |
| 20260506200020 | 60 | 113 | 0.0 | 2.0 | 0.00 | 0.13 | 0.13 | 77 | 1013.4 |
| 20260506194516 | 60 | 149 | 0.0 | 2.0 | 0.00 | 0.13 | 0.13 | 78 | 1013.7 |
| 20260506193016 | 59 | 111 | 0.0 | 1.0 | 0.00 | 0.13 | 0.13 | 78 | 1014.3 |
| 20260506191515 | 58 | 128 | 0.0 | 1.0 | 0.00 | 0.13 | 0.13 | 79 | 1014.0 |
| 20260506190022 | 57 | 120 | 0.0 | 1.0 | 0.00 | 0.13 | 0.13 | 80 | 1014.1 |
| 20260506184517 | 57 | 100 | 0.0 | 2.0 | 0.00 | 0.13 | 0.13 | 80 | 1014.1 |
| 20260506183015 | 58 | 121 | 0.0 | 1.0 | 0.00 | 0.13 | 0.13 | 80 | 1013.4 |
| 20260506181516 | 58 | 70 | 0.0 | 4.0 | 0.00 | 0.13 | 0.13 | 82 | 1012.5 |
| 20260506180012 | 57 | 303 | 0.0 | 3.0 | 0.00 | 0.13 | 0.13 | 82 | 1012.9 |
| 20260506174510 | 55 | 83 | 0.0 | 2.0 | 0.00 | 0.13 | 0.13 | 82 | 1013.3 |
| 20260506173011 | 55 | 125 | 0.0 | 4.0 | 0.00 | 0.13 | 0.13 | 82 | 1013.3 |
| 20260506171509 | 54 | 104 | 0.0 | 3.0 | 0.00 | 0.13 | 0.13 | 82 | 1013.3 |
| 20260506170011 | 54 | 93 | 0.0 | 1.0 | 0.00 | 0.13 | 0.13 | 80 | 1013.4 |
| 20260506164509 | 54 | 273 | 0.0 | 1.0 | 0.00 | 0.13 | 0.13 | 80 | 1013.5 |